GEFSSGP_con_cape1000_186.txt.gz
Probability
35 29 26 19 0 0 0 0 0 0 0 0 0 3 0 0 0 0 0 10 10 13 39 61 61 52 52 55 52 52 48 42 45 42 42 45 48 45 55 45 42 35 42 39 35 45 39 39 39
23 26 26 6 0 0 0 0 0 0 0 0 0 0 0 6 3 0 6 13 6 16 23 42 61 52 42 48 48 48 42 45 42 35 35 42 35 39 39 42 35 29 29 26 26 29 32 32 35
29 29 16 0 0 0 0 0 0 0 0 0 0 0 0 3 3 0 6 16 6 13 26 52 61 45 45 48 45 42 32 35 35 32 32 29 32 35 32 26 29 23 19 19 19 16 19 19 26
16 13 0 0 0 0 0 0 0 0 0 0 0 0 0 0 0 0 0 6 6 10 23 45 55 45 39 39 32 32 29 35 32 32 32 29 29 29 23 19 19 26 13 16 16 16 13 19 29
6 3 0 0 0 0 0 0 0 0 0 0 0 0 0 0 0 0 0 3 3 3 6 23 48 32 35 32 32 26 26 26 26 23 19 16 16 19 13 16 16 13 16 10 13 13 13 16 19
0 0 0 0 0 0 0 0 0 0 0 0 0 0 0 0 0 0 0 3 3 6 10 16 29 29 29 29 26 29 26 23 23 19 16 13 13 16 19 10 10 6 6 10 10 10 13 10 19
0 0 0 0 0 0 0 0 0 0 0 0 0 0 0 0 0 0 0 6 6 10 10 6 10 13 23 26 26 19 19 13 16 13 13 13 13 13 10 10 6 3 3 3 10 13 10 10 16
0 0 0 0 0 0 0 0 0 0 0 0 0 0 0 0 0 3 3 6 6 3 6 6 6 6 6 6 16 16 16 13 6 6 10 6 6 13 10 13 3 3 3 3 0 6 13 13 13
0 0 0 0 0 0 0 0 0 0 0 0 0 0 0 0 0 3 3 0 3 3 6 6 3 3 3 3 6 13 6 10 6 6 16 6 3 3 10 6 10 6 3 3 3 10 10 10 13
0 0 0 0 0 0 0 0 0 0 0 0 0 0 0 0 0 0 3 3 3 3 6 3 3 3 3 3 0 0 0 0 0 3 0 0 0 0 0 3 3 3 3 6 3 6 10 3 0
0 0 0 0 0 0 0 0 0 0 0 0 0 0 0 0 0 0 0 3 3 3 3 0 3 0 0 0 0 0 0 0 0 0 0 0 0 0 0 0 0 0 0 0 0 0 0 0 0
0 0 0 0 0 0 0 0 0 0 0 0 0 0 3 3 3 0 0 3 0 0 0 0 0 0 0 0 0 0 0 0 0 0 0 0 0 0 0 0 0 0 0 0 0 0 0 0 0
0 0 0 0 0 0 0 0 0 0 0 0 3 0 0 0 0 0 0 0 0 0 3 0 0 0 0 0 0 0 0 0 0 0 0 0 0 0 0 0 0 0 0 0 0 0 0 0 0
0 0 0 0 0 0 0 0 0 0 0 6 3 3 0 0 0 0 0 0 0 0 3 0 0 0 0 0 0 0 0 0 0 0 0 0 0 0 0 0 0 0 0 0 0 0 0 0 0
0 0 0 0 0 0 0 0 0 0 0 3 3 3 3 0 0 0 0 0 0 0 0 0 0 0 0 0 0 0 0 0 0 0 0 0 0 0 0 0 0 0 0 0 0 0 0 0 0
0 0 0 0 0 0 0 0 0 0 0 0 0 0 3 3 3 0 0 0 0 0 0 0 0 0 0 0 0 0 0 0 0 0 0 0 0 0 0 0 0 0 0 0 0 0 0 0 0
0 0 0 0 0 0 0 0 0 0 0 0 0 0 0 0 0 0 0 0 0 0 0 0 0 0 0 0 0 0 0 0 0 0 0 0 0 0 0 0 0 0 0 0 0 0 0 0 0
0 0 0 0 0 0 0 0 0 0 0 0 0 0 0 0 0 0 0 0 0 0 0 0 0 0 0 0 0 0 0 0 0 0 0 0 0 0 0 0 0 0 0 0 0 0 0 0 0
0 0 0 0 0 0 0 0 0 0 0 0 0 0 0 0 0 0 0 0 0 0 0 0 0 0 0 0 0 0 0 0 0 0 0 0 0 0 0 0 0 0 0 0 0 0 0 0 0
0 0 0 0 0 0 0 0 0 0 0 0 0 0 0 0 0 0 0 0 0 0 0 0 0 0 0 0 0 0 0 0 0 0 0 0 0 0 0 0 0 0 0 0 0 0 0 0 0
0 0 0 0 0 0 0 0 0 0 0 0 0 0 0 0 0 0 0 0 0 0 0 0 0 0 0 0 0 0 0 0 0 0 0 0 0 0 0 0 0 0 0 0 0 0 0 0 0
0 0 0 0 0 0 0 0 0 0 0 0 0 0 0 0 0 0 0 0 0 0 0 0 0 0 0 0 0 0 0 0 0 0 0 0 0 0 0 0 0 0 0 0 0 0 0 0 0
0 0 0 0 0 0 0 0 0 0 0 0 0 0 0 0 0 0 0 0 0 0 0 0 0 0 0 0 0 0 0 0 0 0 0 0 0 0 0 0 0 0 0 0 0 0 0 0 0
0 0 0 0 0 0 0 0 0 0 0 0 0 0 0 0 0 0 0 0 0 0 0 0 0 0 0 0 0 0 0 0 0 0 0 0 0 0 0 0 0 0 0 0 0 0 0 0 0
0 0 0 0 0 0 0 0 0 0 0 0 0 0 0 0 0 0 0 3 0 0 0 0 0 0 0 0 0 0 0 0 0 0 0 0 0 0 0 0 0 0 0 0 0 0 0 0 0
0 0 0 0 0 0 0 0 0 0 0 0 0 0 0 0 0 3 3 3 3 0 0 0 0 0 0 0 0 0 0 0 0 0 0 0 0 0 0 0 0 0 0 0 0 0 0 0 0
0 0 0 0 0 0 0 0 0 0 0 0 0 0 0 0 0 3 3 3 6 3 0 0 0 0 0 0 0 0 0 0 0 0 0 0 0 0 0 0 0 0 0 0 0 0 0 0 0
0 0 0 0 0 0 0 0 0 0 0 0 0 0 0 0 0 0 3 6 6 3 0 0 0 0 0 0 0 0 0 0 0 0 0 0 0 0 0 0 0 0 0 0 0 0 0 0 0
0 0 0 0 0 0 0 0 0 0 0 0 0 0 0 0 0 0 3 6 6 0 0 0 0 0 0 0 0 0 0 0 0 0 0 0 0 0 0 0 0 0 0 0 0 0 0 0 0
0 0 0 0 0 0 0 0 0 0 0 0 0 0 0 0 0 0 0 3 3 0 0 0 0 0 0 0 0 0 0 0 0 0 0 0 0 0 0 0 0 0 0 0 0 0 0 0 0

GEFSSGP_con_cape1000_192.txt.gz
Probability
42 26 19 0 0 0 0 0 0 0 0 0 0 0 0 0 0 0 0 0 3 6 19 45 52 45 39 39 39 42 32 39 39 42 45 45 42 42 42 39 39 42 35 32 39 42 48 48 58
23 26 6 0 0 0 0 0 0 0 0 0 0 0 0 0 0 0 0 3 6 10 19 29 45 45 45 32 39 35 32 42 42 35 35 39 45 42 32 32 32 32 32 29 32 35 35 32 42
13 10 0 0 0 0 0 0 0 0 0 0 0 0 0 0 0 0 0 3 6 10 13 26 39 42 42 35 29 35 35 39 32 32 29 35 35 35 35 32 35 23 19 23 29 32 35 39 35
13 0 0 0 0 0 0 0 0 0 0 0 0 0 0 0 0 0 0 6 10 10 13 23 42 35 35 39 29 26 26 32 26 32 29 26 29 32 32 26 19 19 19 23 26 26 35 32 29
0 0 0 0 0 0 0 0 0 0 0 0 0 0 0 0 0 0 6 6 10 6 6 16 32 26 23 23 23 23 23 19 23 23 19 23 23 19 23 19 16 16 19 16 16 16 26 29 26
0 0 0 0 0 0 0 0 0 0 0 0 0 0 0 0 0 0 3 3 10 6 6 6 19 23 13 10 16 16 13 13 16 16 13 16 16 19 13 13 19 16 19 10 13 23 23 19 29
0 0 0 0 0 0 0 0 0 0 0 0 0 0 0 0 0 0 0 0 6 6 6 6 6 6 13 16 16 10 13 13 13 10 13 13 16 13 10 13 13 13 13 3 13 16 13 26 32
0 0 0 0 0 0 0 0 0 0 0 0 0 0 0 0 0 0 0 0 3 6 6 6 6 6 6 6 13 10 10 13 13 10 10 16 16 10 16 13 10 6 6 6 10 16 19 16 23
0 0 0 0 0 0 0 0 0 0 3 3 0 0 0 0 0 0 3 3 3 6 6 3 6 3 3 3 6 6 6 6 6 6 13 3 3 3 3 3 10 6 6 6 10 16 13 10 13
0 0 0 0 0 0 0 0 0 0 0 0 0 0 0 0 0 0 3 3 0 3 6 3 3 0 0 3 0 0 0 0 0 0 0 0 0 0 0 3 10 6 3 3 6 6 0 0 0
0 0 0 0 0 0 0 0 0 0 0 0 0 0 0 0 0 0 0 0 0 0 0 3 0 0 0 0 0 0 0 0 0 0 0 0 0 0 0 0 0 0 0 0 0 0 0 0 0
0 0 0 0 0 0 0 0 0 0 0 0 0 0 0 0 0 0 0 0 0 0 0 0 0 0 0 0 0 0 0 0 0 0 0 0 0 0 0 0 0 0 0 0 0 0 0 0 0
0 0 0 0 0 0 0 0 0 0 0 0 0 0 0 0 0 0 0 0 0 0 0 0 0 0 0 0 0 0 0 0 0 0 0 0 0 0 0 0 0 0 0 0 0 0 0 0 0
0 0 0 0 0 0 0 0 0 0 0 3 3 3 3 0 0 0 0 0 0 0 0 0 0 0 0 0 0 0 0 0 0 0 0 0 0 0 0 0 0 0 0 0 0 0 0 0 0
0 0 0 0 0 0 0 0 0 0 0 3 3 3 3 3 0 0 0 0 0 0 0 0 0 0 0 0 0 0 0 0 0 0 0 0 0 0 0 0 0 0 0 0 0 0 0 0 0
0 0 0 0 0 0 0 0 0 0 0 3 0 0 3 3 3 0 0 0 0 0 0 0 0 0 0 0 0 0 0 0 0 0 0 0 0 0 0 0 0 0 0 0 0 0 0 0 0
0 0 0 0 0 0 0 0 0 0 0 0 0 0 0 3 3 3 0 0 0 0 0 0 0 0 0 0 0 0 0 0 0 0 0 0 0 0 0 0 0 0 0 0 0 0 0 0 0
0 0 0 0 0 0 0 0 0 0 0 0 0 0 0 3 3 3 0 0 0 0 0 0 0 0 0 0 0 0 0 0 0 0 0 0 0 0 0 0 0 0 0 0 0 0 0 0 0
0 0 0 0 0 0 0 0 0 0 0 0 0 0 0 0 3 3 3 3 0 0 0 0 0 0 0 0 0 0 0 0 0 0 0 0 0 0 0 0 0 0 0 0 0 0 0 0 0
0 0 0 0 0 0 0 0 0 0 0 0 0 0 0 0 0 0 3 3 3 0 0 0 0 0 0 0 0 0 0 0 0 0 0 0 0 0 0 0 0 0 0 0 0 0 0 0 0
0 0 0 0 0 0 0 0 0 0 0 0 0 0 0 0 0 0 0 3 3 0 0 0 0 0 0 0 0 0 0 0 0 0 0 0 0 0 0 0 0 0 0 0 0 0 0 0 0
0 0 0 0 0 0 0 0 0 0 0 0 0 0 0 0 0 0 0 3 0 0 0 0 0 0 0 0 0 0 0 0 0 0 0 0 0 0 0 0 0 0 0 0 0 0 0 0 0
0 0 0 0 0 0 0 0 0 0 0 0 0 0 0 0 0 0 0 3 0 0 0 0 0 0 0 0 0 0 0 0 0 0 0 0 0 0 0 0 0 0 0 0 0 0 0 0 0
0 0 0 0 0 0 0 0 0 0 0 0 0 0 0 0 0 0 0 3 0 0 0 0 0 0 0 0 0 0 0 0 0 0 0 0 0 0 0 0 0 0 0 0 0 0 0 0 0
0 0 0 0 0 0 0 0 0 0 0 0 0 0 0 0 0 0 0 3 0 0 0 0 0 0 0 0 0 0 0 0 0 0 0 0 0 0 0 0 0 0 0 0 0 0 0 0 0
0 0 0 0 0 0 0 0 0 0 0 0 0 0 0 0 0 0 0 3 0 0 0 0 0 0 0 0 0 0 0 0 0 0 0 0 0 0 0 0 0 0 0 0 0 0 0 0 0
0 0 0 0 0 0 0 0 0 0 0 0 0 0 0 0 0 0 0 0 0 0 0 0 0 0 0 0 0 0 0 0 0 0 0 0 0 0 0 0 0 0 0 0 0 0 0 0 0
0 0 0 0 0 0 0 0 0 0 0 0 0 0 0 0 0 0 0 0 0 0 0 0 0 0 0 0 0 0 0 0 0 0 0 0 0 0 0 0 0 0 0 0 0 0 0 0 0
0 0 0 0 0 0 0 0 0 0 0 0 0 0 0 0 0 0 0 0 0 0 0 0 0 0 0 0 0 0 0 0 0 0 0 0 0 0 0 0 0 0 0 0 0 0 0 0 0
0 0 0 0 0 0 0 0 0 0 0 0 0 0 0 0 0 0 0 0 0 0 0 0 0 0 0 0 0 0 0 0 0 0 0 0 0 0 0 0 0 0 0 0 0 0 0 0 0

GEFSSGP_con_cape1000_198.txt.gz
Probability
39 45 42 42 16 3 0 0 0 0 0 0 0 0 0 0 0 6 10 6 3 0 13 23 35 32 32 35 23 26 32 35 32 32 35 39 39 42 39 35 32 42 42 42 39 42 45 42 45
39 39 39 16 6 0 0 0 0 0 0 0 0 0 0 0 3 3 6 10 0 0 10 19 32 32 19 23 23 19 23 29 29 32 32 39 35 39 42 23 23 32 32 39 32 32 32 32 39
29 35 26 6 0 0 0 0 0 0 0 0 0 0 0 0 3 6 10 10 6 3 10 23 35 26 23 23 23 19 19 23 26 23 26 26 19 29 29 23 13 16 26 29 29 26 23 26 29
32 19 6 0 0 0 0 0 0 0 0 0 0 0 0 0 6 10 10 10 6 6 6 16 42 35 19 26 23 19 16 19 23 23 23 23 16 26 19 19 16 16 16 19 26 29 29 29 32
16 6 0 0 0 0 0 0 0 0 0 0 0 0 0 10 10 10 10 10 3 10 10 13 29 29 23 23 23 16 13 13 23 23 19 16 16 16 10 13 10 10 19 16 19 19 23 29 32
6 3 0 0 0 0 3 3 0 0 0 0 0 0 0 10 13 10 10 13 10 10 10 13 16 16 13 13 13 10 10 13 19 16 13 16 19 13 13 10 13 10 13 13 16 13 13 23 29
6 3 0 0 0 0 0 0 0 0 0 0 0 0 0 13 13 13 6 16 10 10 13 10 10 10 13 13 16 16 13 6 6 10 13 16 10 10 13 13 16 10 13 13 16 10 16 16 19
3 3 0 0 0 0 0 0 0 0 0 0 0 0 0 13 13 10 13 16 16 10 13 10 13 6 6 10 10 10 10 10 6 13 13 19 10 13 13 10 13 13 16 13 16 16 16 10 19
3 3 0 0 0 0 0 0 0 0 0 3 3 0 0 10 10 13 16 13 13 10 10 10 6 6 6 6 6 10 13 10 10 16 16 13 6 6 10 13 13 13 10 10 13 10 6 6 6
3 0 0 0 0 0 0 0 0 0 0 0 3 6 10 16 16 13 13 10 10 10 13 10 6 6 6 6 6 13 6 6 10 13 13 13 10 6 3 6 16 13 6 10 10 6 3 3 3
3 3 0 0 0 0 0 0 3 0 0 0 0 10 13 10 16 16 13 10 10 6 6 10 6 0 3 10 6 10 13 10 10 10 10 6 10 6 6 10 13 13 0 0 0 0 0 0 3
0 0 0 0 0 0 0 0 0 0 0 0 0 6 16 13 10 16 10 6 6 0 3 6 10 3 3 0 0 10 10 6 6 6 6 6 10 6 3 3 10 6 6 0 3 0 0 0 0
0 0 0 0 0 0 0 0 0 0 0 0 3 6 10 16 10 6 6 3 3 0 3 6 10 3 3 3 3 0 6 6 3 6 3 0 3 0 0 0 3 3 3 0 3 0 0 3 3
0 0 0 0 0 0 0 0 0 0 0 0 3 6 10 13 13 10 6 3 0 0 3 6 3 3 3 0 0 0 0 0 0 0 0 0 0 0 0 0 3 0 0 0 3 3 3 3 3
0 0 0 0 0 0 0 0 0 0 0 0 0 6 13 13 10 10 3 3 3 0 3 10 3 3 3 3 0 0 0 0 0 0 0 0 0 0 0 0 0 0 0 0 0 3 3 3 3
0 0 0 0 0 0 0 0 0 0 0 0 0 0 6 13 10 10 3 3 3 0 0 10 3 3 3 3 0 0 0 0 0 0 0 0 0 0 0 0 0 0 3 6 6 3 3 3 3
0 0 0 0 0 0 0 0 0 0 0 0 0 0 0 6 10 10 3 3 6 6 3 6 6 0 0 0 0 0 0 0 0 0 0 0 0 0 0 0 0 3 3 3 3 3 3 3 3
0 0 0 0 0 0 0 0 0 0 0 0 0 0 0 0 0 0 10 6 6 6 6 10 6 3 0 0 0 0 0 0 0 0 0 0 0 0 0 0 0 0 3 3 3 3 3 3 6
0 0 0 0 0 0 0 0 0 0 0 0 0 0 0 0 0 0 3 10 13 13 13 6 6 3 0 0 0 0 0 0 0 0 0 0 0 0 0 0 0 3 3 3 3 3 3 6 6
0 0 0 0 0 0 0 0 0 0 0 0 0 0 0 0 0 0 0 6 13 16 10 6 6 6 3 0 0 0 0 0 0 0 0 0 0 0 0 0 0 0 3 0 0 3 10 3 3
0 0 0 0 0 0 0 0 0 0 0 0 0 0 0 0 0 0 0 6 16 13 6 3 6 6 0 0 0 0 0 0 0 0 0 0 0 3 0 0 0 0 3 10 3 0 3 0 0
0 0 0 0 0 0 0 0 0 0 0 0 0 0 0 0 0 0 0 3 10 13 10 3 6 6 6 0 0 0 0 0 3 0 0 0 0 3 0 0 0 0 3 3 0 0 3 3 3
0 0 0 0 0 0 0 0 0 0 0 0 0 0 0 0 0 0 0 6 3 6 10 6 6 6 6 0 0 0 0 0 0 0 0 0 0 0 3 3 0 0 0 0 0 0 0 0 0
0 0 0 0 0 0 0 0 0 0 0 0 0 0 0 0 0 0 0 6 3 3 6 10 10 10 10 10 3 0 0 0 0 0 0 3 3 0 3 3 0 0 0 0 0 0 0 0 0
0 0 0 0 0 0 0 0 0 0 0 0 0 0 0 0 0 0 3 6 6 0 6 10 10 10 6 10 6 0 0 0 0 0 3 0 3 3 0 0 0 0 0 0 0 0 0 0 0
0 0 0 0 0 0 0 0 0 0 0 0 0 0 0 0 3 3 3 3 6 3 13 10 10 10 6 6 10 0 0 0 0 0 3 3 6 3 0 0 0 0 0 0 0 0 0 0 0
0 0 0 0 0 0 0 0 0 0 0 0 0 0 0 0 3 3 0 3 3 6 10 10 13 10 3 3 3 3 0 0 0 0 0 3 3 0 0 0 0 0 0 0 0 3 0 0 0
0 0 0 0 0 0 0 0 0 0 0 0 0 0 0 0 0 3 3 3 3 6 6 10 13 10 6 0 0 0 0 0 0 0 0 0 3 3 0 0 0 0 0 0 0 0 0 0 0
0 0 0 0 0 0 0 0 0 0 0 0 0 0 0 0 0 3 3 6 0 0 3 10 10 10 6 0 0 0 0 0 0 0 0 0 0 0 0 0 0 0 0 0 3 3 3 0 0
0 0 0 0 0 0 0 0 0 0 0 0 0 0 0 0 0 3 3 3 0 0 0 3 6 6 6 6 3 3 0 0 0 0 0 0 0 0 0 0 0 0 0 0 0 3 3 0 0

GEFSSGP_con_cape1000_204.txt.gz
Probability
45 52 52 77 90 39 3 3 0 0 0 0 0 0 0 0 3 6 10 0 10 16 16 35 48 35 32 29 29 29 29 29 26 26 32 32 35 39 39 39 32 39 35 32 35 29 32 35 32
42 45 61 81 65 0 0 0 6 0 0 0 0 0 0 0 6 3 6 6 16 13 16 23 52 32 26 23 26 26 26 29 29 29 32 35 32 32 26 26 29 26 29 39 32 29 19 29 32
35 42 61 71 19 0 0 0 3 0 0 0 0 0 0 0 6 13 13 6 10 19 23 32 42 29 26 23 23 23 19 23 26 23 32 32 32 26 26 23 19 23 26 23 19 23 19 26 35
39 58 58 29 0 0 0 3 3 0 0 0 0 0 0 3 10 13 10 3 0 19 23 35 39 32 29 26 19 23 19 23 26 23 26 19 26 19 19 16 19 16 19 23 23 26 23 19 23
45 65 26 6 0 0 0 0 0 0 0 0 0 0 3 6 6 10 10 6 6 13 19 19 39 29 26 16 13 19 19 19 19 19 19 10 6 6 13 13 16 16 19 19 16 16 23 23 19
52 48 10 0 0 0 0 0 0 0 0 0 0 0 6 6 6 10 10 13 13 16 16 13 35 35 23 16 19 13 23 23 19 19 19 13 13 16 16 13 13 16 16 13 19 23 29 16 16
39 35 6 0 0 0 0 0 0 0 0 0 0 0 6 6 6 6 6 10 10 13 16 13 10 16 26 23 23 19 10 16 19 23 19 13 16 10 6 10 13 19 19 13 19 23 19 13 10
35 35 3 3 0 0 0 0 0 0 0 0 0 0 6 6 10 10 10 10 13 6 10 13 10 10 6 10 19 13 13 16 13 16 13 10 10 10 10 16 16 16 16 19 23 19 10 6 10
10 16 6 3 0 0 0 0 0 0 0 0 0 3 10 6 6 10 13 10 13 10 10 13 13 10 6 6 10 16 13 10 10 16 13 13 6 6 6 6 16 16 19 23 19 13 6 6 6
10 13 3 0 0 0 0 0 0 0 0 0 0 10 10 6 3 10 6 6 6 6 10 13 16 10 6 3 10 10 6 10 10 6 6 6 6 3 3 6 10 19 19 19 19 13 10 6 0
0 0 0 0 0 0 0 0 0 0 0 0 0 6 10 10 3 3 6 6 6 3 10 10 13 6 3 3 3 3 3 6 3 6 3 3 3 3 3 0 10 3 13 3 6 10 3 0 0
0 0 0 0 0 0 0 0 0 0 0 0 0 6 6 10 6 3 3 6 6 6 3 6 3 0 0 0 3 3 3 3 0 3 0 3 0 0 0 0 0 3 3 3 3 3 3 0 0
0 0 0 0 0 0 0 0 0 0 0 0 0 6 10 3 10 6 3 6 6 6 6 6 6 0 0 0 0 3 3 0 0 3 0 0 0 0 0 0 0 0 0 0 3 0 0 0 3
0 0 0 0 0 0 0 0 0 0 0 0 0 0 6 3 3 6 6 6 6 6 6 10 6 3 0 0 0 0 3 3 3 3 0 0 0 0 0 0 0 0 0 0 0 0 0 0 3
0 0 0 0 0 0 0 0 0 0 0 0 0 0 3 3 3 6 6 10 3 3 6 6 6 6 0 0 0 0 0 0 0 0 0 0 0 0 0 0 0 0 0 0 0 0 0 3 3
0 0 0 0 0 0 0 0 0 0 0 0 0 0 3 3 3 3 6 10 3 3 0 3 6 3 0 0 0 0 0 0 0 0 0 0 0 0 0 0 0 0 0 0 0 0 0 3 3
0 0 0 0 0 0 0 0 0 0 0 0 0 0 0 3 0 0 3 3 6 3 0 3 3 0 0 0 0 0 0 0 0 0 0 0 0 0 0 0 0 0 0 0 0 0 0 0 0
0 0 0 0 0 0 0 0 0 0 0 0 0 0 0 0 0 0 0 0 0 0 3 3 6 0 0 0 0 0 0 0 0 0 0 0 0 0 0 0 0 3 3 0 0 0 3 3 0
0 0 0 0 0 0 0 0 0 0 0 0 0 0 3 0 0 0 0 0 0 3 3 3 6 0 0 0 0 0 0 0 0 0 0 0 0 0 0 0 3 3 3 3 0 0 0 3 0
0 0 0 0 0 0 0 0 0 0 0 0 3 3 0 0 0 0 3 0 0 0 3 3 3 3 0 0 0 3 0 0 0 3 0 0 0 0 0 0 0 0 3 0 0 0 0 0 0
0 0 0 0 0 0 0 0 0 0 0 0 0 0 3 0 0 0 0 0 0 3 0 3 3 3 0 0 0 0 0 0 0 0 0 0 0 3 0 0 0 0 0 0 0 0 0 0 0
0 0 0 0 0 0 0 0 0 0 0 0 0 0 3 3 0 3 0 0 0 3 0 0 3 3 0 0 3 3 0 0 0 0 0 0 0 0 0 0 3 0 0 0 0 3 0 0 0
0 0 0 0 0 0 0 0 0 0 0 0 3 3 3 3 0 0 6 6 0 3 3 0 0 6 3 3 6 6 3 3 0 0 0 0 0 3 3 0 0 3 0 0 0 3 3 0 3
0 0 0 0 0 0 0 0 0 0 0 0 3 3 3 3 0 3 6 6 3 6 10 3 6 6 6 3 3 6 3 3 3 0 0 0 0 0 0 0 0 0 0 0 0 0 0 0 0
0 0 0 0 0 0 0 0 0 0 0 0 0 3 3 3 0 3 6 6 3 6 10 10 6 6 6 6 3 3 3 3 0 0 0 0 0 0 0 0 0 0 0 0 0 0 0 0 0
0 0 0 0 0 0 0 0 0 0 0 0 0 0 3 3 3 3 3 6 10 13 10 10 6 6 6 6 6 3 0 3 0 0 0 0 0 0 0 0 0 0 0 0 0 0 0 0 0
0 0 0 0 0 0 0 0 0 0 0 0 0 0 3 3 6 3 3 3 6 13 10 13 6 6 6 6 6 3 0 3 3 3 0 0 0 0 0 0 0 0 0 0 0 0 0 0 0
0 0 0 0 0 0 0 0 0 0 0 0 0 0 3 6 6 6 6 10 19 13 10 10 13 6 6 6 3 3 3 3 3 0 0 0 0 0 0 0 0 0 0 0 0 0 0 0 0
0 0 0 0 0 0 0 0 0 0 0 0 0 0 0 0 6 6 6 10 19 10 10 6 6 6 6 6 3 3 3 0 0 0 0 0 0 0 0 0 0 0 0 0 0 0 0 0 0
0 0 0 0 0 0 0 0 0 0 0 0 0 0 0 0 6 6 6 6 13 6 3 6 6 6 6 6 3 0 3 3 0 0 0 0 0 0 0 0 0 0 0 0 0 0 0 0 0

GEFSSGP_con_cape1000_210.txt.gz
Probability
35 32 32 16 0 0 0 0 0 0 0 0 0 0 3 0 0 0 0 3 13 10 32 48 55 48 42 39 39 39 45 35 35 35 32 35 39 39 39 39 35 32 32 35 35 35 32 29 35
35 29 26 3 0 0 0 0 0 0 0 0 0 0 3 0 0 0 0 3 10 10 13 35 48 45 48 45 39 39 39 42 39 39 29 32 32 32 35 32 29 29 26 32 32 29 26 26 32
35 32 10 0 0 0 0 0 0 0 0 0 0 0 3 3 0 0 3 10 13 10 13 48 52 48 48 48 39 39 39 42 39 39 35 29 29 35 35 32 29 26 23 23 23 29 23 16 32
19 10 3 0 0 0 0 0 0 0 0 0 0 3 3 6 6 0 6 13 13 10 16 45 45 45 45 39 39 35 32 29 32 39 35 29 29 26 26 35 32 26 19 19 16 19 19 13 19
6 6 0 0 0 0 0 0 0 0 0 0 0 3 3 0 3 6 6 10 10 10 19 29 48 45 39 35 35 32 29 26 23 32 29 23 23 23 19 23 26 26 23 23 23 19 16 23 29
3 0 0 0 0 0 0 0 0 0 0 0 0 3 3 0 0 3 3 13 13 16 23 29 42 32 32 32 26 35 26 23 23 29 26 19 19 16 16 19 26 29 26 29 23 19 23 23 32
3 0 0 0 0 0 0 0 0 0 0 0 0 3 3 3 0 6 3 13 16 13 19 19 23 26 29 29 26 29 26 23 26 26 26 23 23 16 16 23 23 19 29 23 19 16 19 19 32
3 0 0 0 0 0 0 0 0 0 0 0 3 3 3 3 0 0 3 10 13 13 10 10 13 10 10 13 19 26 23 26 26 23 23 19 16 13 13 13 19 16 19 16 16 13 10 6 29
0 0 0 0 0 0 0 0 0 0 0 0 3 3 3 3 3 0 0 3 10 6 6 10 10 6 6 6 16 16 19 19 19 10 16 10 3 0 6 16 23 19 19 19 16 10 6 6 16
0 0 0 0 0 0 0 0 0 0 0 6 6 6 3 3 3 3 3 0 3 3 3 6 6 6 6 6 3 0 10 10 10 3 6 0 0 0 0 10 16 13 13 13 16 10 3 3 0
0 0 0 0 0 0 0 0 0 0 0 3 6 6 3 3 3 3 3 0 0 3 6 3 3 6 0 0 0 0 0 0 0 0 0 0 0 0 0 0 3 3 6 0 3 3 0 0 0
0 0 0 0 0 0 0 0 0 0 0 0 6 6 3 3 3 3 3 3 0 6 6 3 6 3 0 0 0 0 0 0 0 0 0 0 0 0 0 0 0 0 0 0 0 0 0 0 0
0 0 0 0 0 0 0 0 0 0 0 0 6 6 6 3 3 3 3 6 6 3 10 3 6 3 0 0 0 0 0 0 0 0 0 0 0 0 0 0 0 0 0 0 0 0 0 0 0
0 0 0 0 0 0 0 0 0 0 0 3 3 3 6 3 3 3 6 6 6 6 3 6 6 0 0 0 0 0 0 0 0 0 0 0 0 0 0 0 0 0 0 0 0 0 0 0 0
0 0 0 0 0 0 0 0 0 0 0 0 3 3 0 0 3 6 6 6 6 6 0 3 3 0 0 0 0 0 0 0 0 0 0 0 0 0 0 0 0 0 0 0 0 0 0 0 0
0 0 0 0 0 0 0 0 0 0 0 0 0 0 0 0 3 0 3 3 3 3 3 3 6 3 0 0 0 0 0 0 0 0 0 0 0 0 0 0 0 0 0 0 0 0 0 0 0
0 0 0 0 0 0 0 0 0 0 0 0 0 0 0 0 0 0 3 3 3 0 3 0 3 3 0 0 0 0 0 0 0 0 0 0 0 0 0 0 0 0 0 0 0 0 0 0 0
0 0 0 0 0 0 0 0 0 0 0 0 0 0 0 0 0 0 3 3 0 0 3 0 0 0 0 0 0 0 0 0 0 0 0 0 0 0 0 0 0 0 0 0 0 0 0 0 0
0 0 0 0 0 0 0 0 0 0 0 0 0 0 0 0 0 3 3 3 0 0 3 3 0 0 0 0 0 0 0 0 0 0 0 0 0 0 0 0 0 0 0 0 0 0 0 0 0
0 0 0 0 0 0 0 0 0 0 0 0 0 0 0 0 0 3 3 3 0 0 0 3 0 0 0 0 0 0 0 0 0 0 0 0 0 0 0 0 0 0 0 0 0 0 0 0 0
0 0 0 0 0 0 0 0 0 0 0 0 0 0 0 0 0 0 3 3 0 0 0 3 0 3 0 0 0 0 0 0 0 0 0 0 0 0 0 0 0 0 0 0 0 0 0 0 0
0 0 0 0 0 0 0 0 0 0 0 0 0 0 0 0 0 0 0 3 0 0 0 0 0 0 0 0 0 0 0 0 0 0 0 0 0 0 0 0 0 0 0 0 0 0 0 0 0
0 0 0 0 0 0 0 0 0 0 0 0 0 0 0 0 0 0 0 0 0 0 0 0 0 0 0 0 0 0 0 0 0 0 0 0 0 0 0 0 0 0 0 0 0 0 0 0 0
0 0 0 0 0 0 0 0 0 0 0 0 0 0 0 0 0 0 0 0 0 0 0 0 0 0 0 0 0 0 0 0 0 0 0 0 0 0 0 0 0 0 0 0 0 0 0 0 0
0 0 0 0 0 0 0 0 0 0 0 0 0 0 0 0 0 0 0 0 0 0 0 0 0 0 0 0 0 0 0 0 0 0 0 0 0 0 0 0 0 0 0 0 0 0 0 0 0
0 0 0 0 0 0 0 0 0 0 0 0 0 0 0 0 0 0 0 0 0 0 0 0 0 0 0 0 0 0 0 0 0 0 0 0 0 0 0 0 0 0 0 0 0 0 0 0 0
0 0 0 0 0 0 0 0 0 0 0 0 0 0 0 0 0 0 0 0 0 0 0 0 0 0 3 0 0 0 0 0 0 0 0 0 0 0 0 0 0 0 0 0 0 0 0 0 0
0 0 0 0 0 0 0 0 0 0 0 0 0 0 0 0 0 0 0 0 0 0 0 0 0 3 3 0 0 0 0 0 0 0 0 0 0 0 0 0 0 0 0 0 0 0 0 0 0
0 0 0 0 0 0 0 0 0 0 0 0 0 0 0 0 0 0 0 0 0 0 0 0 0 3 3 0 0 0 0 0 0 0 0 0 0 0 0 0 0 0 0 0 0 0 0 0 0
0 0 0 0 0 0 0 0 0 0 0 0 0 0 0 0 0 0 0 0 0 0 0 0 3 3 3 0 0 0 0 0 0 0 0 0 0 0 0 0 0 0 0 0 0 0 0 0 0

GEFSSGP_con_cape1000_216.txt.gz
Probability
39 29 10 0 0 0 0 0 0 0 0 0 0 0 0 0 0 0 0 3 3 3 23 39 35 35 32 35 45 45 42 42 42 35 35 39 42 39 35 35 32 32 32 32 35 42 39 39 35
26 23 0 0 0 0 0 0 0 0 0 0 0 0 0 0 0 0 0 6 3 6 16 26 32 32 35 35 39 42 35 39 35 26 29 29 32 39 35 32 26 23 29 32 35 39 39 35 45
19 6 0 0 0 0 0 0 0 0 0 0 0 0 0 0 0 0 0 3 6 13 13 26 35 32 32 29 29 32 29 26 26 29 23 23 23 23 23 26 19 19 26 29 35 35 39 35 29
6 0 0 0 0 0 0 0 0 0 0 0 0 0 0 0 0 0 6 3 6 10 16 29 39 35 29 29 29 32 32 39 32 32 23 19 23 29 26 23 23 26 23 19 26 32 26 32 39
0 0 0 0 0 0 0 0 0 0 0 0 0 0 0 0 0 3 3 10 6 10 16 26 35 35 32 23 26 26 26 23 29 29 16 19 19 23 23 19 23 29 23 16 19 26 26 32 39
0 0 0 0 0 0 0 0 0 0 0 0 0 0 0 0 6 6 10 10 10 13 16 23 32 35 23 23 23 19 23 29 29 29 26 23 16 19 23 29 26 23 23 16 26 32 32 39 35
0 0 0 0 0 0 0 0 0 0 0 0 0 0 0 0 3 6 10 6 10 13 10 13 19 23 26 29 23 19 16 19 26 23 19 19 16 16 23 19 16 16 32 32 32 29 29 26 29
0 0 0 0 0 0 0 0 0 0 0 3 0 0 0 0 0 3 10 3 3 10 13 16 13 13 10 10 19 16 23 26 23 19 16 16 19 19 19 16 16 16 19 19 23 16 16 23 23
0 0 0 0 0 0 0 0 0 0 0 6 3 0 0 0 3 6 10 6 6 6 6 10 10 6 6 3 13 13 16 16 10 10 10 6 3 3 3 16 16 16 19 23 23 19 16 13 19
0 0 0 0 0 0 0 0 0 0 3 3 6 3 3 3 3 3 6 10 10 6 6 3 10 6 3 3 3 6 6 3 0 0 3 0 0 0 3 10 16 16 10 13 19 16 6 3 0
0 0 0 0 0 0 0 0 0 0 0 0 3 3 3 3 3 0 0 3 6 6 3 3 6 3 3 3 3 3 0 0 0 0 0 0 0 0 0 0 0 3 3 3 3 0 0 0 0
0 0 0 0 0 0 0 0 0 0 0 0 0 3 3 3 3 0 0 0 0 6 6 3 3 0 0 3 0 0 0 0 0 0 0 0 0 0 0 0 0 0 0 0 0 0 0 0 0
0 0 0 0 0 0 0 0 0 0 0 0 3 3 3 3 6 3 0 3 3 3 6 3 3 0 0 0 0 0 0 0 0 0 0 0 0 0 0 0 0 0 0 0 0 0 0 0 0
0 0 0 0 0 0 0 0 0 0 0 3 0 0 3 6 6 6 10 10 10 3 3 6 3 3 0 0 0 0 0 0 0 0 0 0 0 0 0 0 0 0 0 0 0 0 0 0 0
0 0 0 0 0 0 0 0 0 0 0 3 3 0 0 0 3 3 3 10 10 6 6 3 3 3 3 0 0 0 0 0 0 0 0 0 0 0 0 0 0 0 0 0 0 0 0 0 0
0 0 0 0 0 0 0 0 0 0 0 0 0 0 0 0 0 0 0 3 6 6 6 6 3 3 3 0 0 0 0 0 0 0 0 0 0 0 0 0 0 0 0 0 0 0 0 0 0
0 0 0 0 0 0 0 0 0 0 0 0 0 0 0 0 0 0 0 3 3 6 3 3 0 3 3 3 0 0 0 0 0 0 0 0 0 0 0 0 0 0 0 0 0 0 0 0 0
0 0 0 0 0 0 0 0 0 0 0 0 0 0 0 0 0 0 0 3 3 6 0 0 0 0 0 0 0 0 0 0 0 0 0 0 0 0 0 0 0 0 0 0 0 0 0 0 0
0 0 0 0 0 0 0 0 0 0 0 0 0 0 0 0 0 0 0 3 3 3 0 0 0 0 0 0 0 0 0 0 0 0 0 0 0 0 0 0 0 0 0 0 0 0 0 0 0
0 0 0 0 0 0 0 0 0 0 0 0 0 0 0 0 0 0 0 3 3 3 0 0 0 0 0 0 0 0 0 0 0 0 0 0 0 0 0 0 0 0 0 0 0 0 0 0 0
0 0 0 0 0 0 0 0 0 0 0 0 0 0 0 0 0 0 0 0 0 0 0 0 0 3 0 0 0 0 0 0 0 0 0 0 0 0 0 0 0 0 0 0 0 0 0 0 0
0 0 0 0 0 0 0 0 0 0 0 0 0 0 0 0 0 0 0 0 0 0 0 0 0 0 0 0 0 0 0 0 0 0 0 0 0 0 0 0 0 0 0 0 0 0 0 0 0
0 0 0 0 0 0 0 0 0 0 0 0 0 0 0 0 0 0 0 0 0 0 0 0 0 0 0 0 0 0 0 0 0 0 0 0 0 0 0 0 0 0 0 0 0 0 0 0 0
0 0 0 0 0 0 0 0 0 0 0 0 0 0 0 0 0 0 0 0 0 0 0 0 0 0 0 0 0 0 0 0 0 0 0 0 0 0 0 0 0 0 0 0 0 0 0 0 0
0 0 0 0 0 0 0 0 0 0 0 0 0 0 0 0 0 0 0 0 0 0 0 0 0 0 0 0 0 0 0 0 0 0 0 0 0 0 0 0 0 0 0 0 0 0 0 0 0
0 0 0 0 0 0 0 0 0 0 0 0 0 0 0 0 0 0 0 0 0 0 0 0 0 0 0 0 0 0 0 0 0 0 0 0 0 0 0 0 0 0 0 0 0 0 0 0 0
0 0 0 0 0 0 0 0 0 0 0 0 0 0 0 0 0 0 0 0 0 0 0 0 0 0 0 0 0 0 0 0 0 0 0 0 0 0 0 0 0 0 0 0 0 0 0 0 0
0 0 0 0 0 0 0 0 0 0 0 0 0 0 0 0 0 0 0 0 0 0 0 0 0 0 0 0 0 0 0 0 0 0 0 0 0 0 0 0 0 0 0 0 0 0 0 0 0
0 0 0 0 0 0 0 0 0 0 0 0 0 0 0 0 0 0 0 0 0 0 0 0 0 0 0 0 0 0 0 0 0 0 0 0 0 0 0 0 0 0 0 0 0 0 0 0 0
0 0 0 0 0 0 0 0 0 0 0 0 0 0 0 0 0 0 0 0 0 0 0 0 0 0 0 0 0 0 0 0 0 0 0 0 0 0 0 0 0 0 0 0 0 0 0 0 0

GEFSSGP_con_cape1000_222.txt.gz
Probability
42 42 29 16 10 0 0 0 0 0 0 0 0 0 0 0 0 3 10 6 3 6 19 32 42 42 29 35 42 39 35 35 35 32 35 32 35 29 29 29 35 32 26 42 39 42 35 39 45
39 42 16 6 0 0 0 0 0 0 0 0 0 0 0 0 0 3 3 10 6 10 13 13 35 35 29 39 39 35 32 32 32 26 26 26 32 32 29 32 32 29 29 35 42 39 32 35 45
32 19 6 0 0 0 0 0 3 0 0 0 0 0 0 0 0 3 6 10 6 6 13 23 32 26 26 32 29 35 26 26 23 19 19 23 32 29 32 23 26 26 29 26 35 39 35 42 48
23 13 3 0 0 0 0 0 0 0 0 0 0 0 0 0 6 6 13 10 10 10 13 23 32 23 23 29 29 29 29 23 19 19 16 19 19 19 16 23 23 23 29 29 32 42 42 32 39
6 3 0 0 0 0 0 0 0 0 0 0 0 0 3 6 10 10 10 10 10 10 13 16 32 26 23 23 29 26 26 32 23 13 13 19 16 19 19 23 23 26 29 32 29 32 39 32 39
13 0 0 0 0 0 0 0 0 0 0 0 0 0 3 16 10 13 13 16 16 16 19 16 32 29 26 19 16 16 23 29 23 13 13 16 13 10 16 26 32 29 26 26 32 35 29 29 29
10 3 0 0 0 0 0 0 0 0 0 3 0 0 3 13 16 16 16 19 16 19 19 19 10 19 29 26 19 19 29 23 19 16 16 10 10 16 19 23 26 32 26 26 32 29 23 23 29
6 3 0 3 3 0 0 0 3 3 3 3 3 0 3 10 16 16 19 19 19 19 19 19 16 13 19 23 29 19 16 16 13 19 23 16 16 16 19 13 23 26 29 35 32 26 26 26 26
3 3 3 3 3 0 0 0 0 3 3 3 3 3 6 10 16 19 19 19 19 16 16 16 16 16 6 6 10 19 16 16 10 13 10 10 6 6 10 6 23 29 23 23 29 19 19 26 19
0 3 3 0 0 0 0 0 0 3 3 3 3 10 10 10 16 16 16 16 16 13 13 13 16 16 10 6 13 16 3 16 10 10 6 6 6 6 6 3 13 19 23 23 19 13 6 6 3
0 0 0 0 0 0 0 0 0 0 0 0 3 3 10 10 13 10 16 16 13 10 13 16 13 16 19 16 16 13 10 13 10 6 3 6 3 3 6 10 10 13 10 10 6 6 3 3 6
0 0 0 0 0 0 0 0 0 3 0 3 3 3 10 10 10 10 6 13 10 10 13 16 13 19 13 13 10 10 16 13 10 10 3 3 3 0 3 6 6 10 10 6 6 10 3 0 0
0 0 0 0 3 0 0 0 3 3 3 3 3 6 6 10 10 13 6 6 6 13 13 10 10 16 13 16 16 13 13 6 10 10 0 0 0 0 0 3 6 3 10 10 10 6 0 0 0
0 0 3 3 0 0 0 0 3 3 3 0 0 3 10 10 10 10 13 13 13 16 16 16 10 10 13 13 16 13 10 16 10 6 0 0 0 0 0 0 0 6 6 6 6 0 3 6 3
0 0 0 0 0 0 0 0 3 3 3 0 0 0 0 3 6 13 16 16 13 13 13 16 13 10 13 6 10 6 10 6 10 10 3 0 0 0 0 0 3 3 6 3 6 0 0 0 0
0 0 0 0 0 0 0 0 0 3 3 0 0 0 0 0 3 10 10 13 13 10 10 6 10 10 13 6 10 10 13 6 3 6 6 0 0 0 0 3 3 3 6 10 3 3 3 0 0
0 0 0 0 0 0 0 0 0 0 0 0 0 0 0 0 0 10 10 13 16 13 10 10 3 6 6 10 10 10 10 16 3 6 6 3 0 0 0 3 3 6 10 6 0 6 0 3 3
0 0 0 0 0 0 0 0 0 0 0 0 3 0 0 0 0 0 6 13 16 16 13 13 6 6 10 10 6 6 10 10 10 6 6 6 3 3 3 3 3 0 3 3 6 0 0 0 0
0 0 0 0 0 0 0 0 0 0 0 0 3 0 0 0 0 3 6 6 13 19 19 16 6 3 10 10 10 10 10 10 10 10 6 6 6 0 3 3 0 3 3 0 3 6 3 3 0
0 0 0 0 0 0 0 0 0 0 0 0 0 0 0 0 3 3 3 10 16 19 19 13 6 3 3 6 6 6 6 10 10 10 6 10 3 3 3 0 3 3 10 0 3 10 6 0 0
0 0 0 0 0 0 0 0 0 0 0 0 0 0 0 3 3 3 3 10 10 13 19 13 10 10 10 6 6 3 3 3 10 10 10 10 6 6 0 0 0 0 3 6 6 10 6 0 0
0 0 0 0 0 0 0 0 0 0 0 0 0 0 0 0 3 3 6 6 6 6 13 13 10 10 6 6 6 3 6 10 10 13 10 10 10 6 0 0 0 0 3 3 3 3 6 6 3
0 0 0 0 0 0 0 0 0 0 0 0 0 0 0 0 0 3 3 3 3 6 6 6 10 13 13 10 13 16 10 10 6 3 6 10 13 6 3 3 0 3 3 0 0 0 3 3 6
0 0 0 0 0 0 0 0 0 0 0 0 0 0 0 0 0 0 3 0 3 3 6 6 3 10 13 13 10 16 13 16 10 13 6 6 10 6 3 3 0 0 3 3 3 6 6 6 3
0 0 0 0 0 0 0 0 0 0 0 0 0 0 0 0 0 0 0 0 3 3 6 6 6 6 6 13 13 13 16 16 13 10 6 10 6 6 3 3 3 3 3 3 6 3 6 3 3
0 0 0 0 0 0 0 0 0 0 0 0 0 0 0 0 0 0 0 0 3 3 3 6 10 6 6 6 10 13 13 16 13 10 10 6 3 0 0 3 3 3 3 3 3 3 3 3 3
0 0 0 0 0 0 0 0 0 0 0 0 0 0 0 0 0 0 0 0 3 3 3 6 10 6 6 6 10 13 3 6 10 10 10 6 3 3 3 3 3 3 6 3 6 6 3 0 6
0 0 0 0 0 0 0 0 0 0 0 0 0 0 0 0 0 0 0 0 0 3 3 3 3 6 3 6 6 6 10 6 10 10 10 6 6 3 3 3 3 3 3 3 3 6 10 0 6
0 0 0 0 0 0 0 0 0 0 0 0 0 0 0 0 0 0 0 0 0 3 3 3 3 3 6 6 6 6 10 6 10 10 10 6 3 3 3 3 3 3 3 3 3 3 3 3 0
0 0 0 0 0 0 0 0 0 0 0 0 0 0 0 0 0 0 0 0 0 0 3 3 3 6 6 10 10 10 10 6 10 10 10 10 3 3 3 3 0 0 0 0 0 0 0 3 0

GEFSSGP_con_cape1000_228.txt.gz
Probability
61 61 58 90 90 35 6 0 0 0 0 0 0 0 0 0 3 3 10 6 10 23 26 35 48 35 29 35 35 32 29 29 29 29 26 29 26 29 35 42 32 29 32 26 32 45 42 45 52
48 52 55 71 48 3 3 3 3 0 0 0 0 0 0 0 0 0 3 0 10 23 19 23 39 35 32 32 39 29 29 23 26 19 26 26 23 26 29 29 29 26 29 39 39 42 45 45 48
48 42 48 58 13 6 3 3 3 0 0 0 0 0 0 0 0 3 6 0 10 19 23 29 42 32 32 32 35 26 23 23 19 16 23 19 23 19 26 19 23 23 29 32 42 45 45 45 26
42 55 48 16 3 3 3 6 3 0 0 0 0 0 0 3 3 0 0 0 6 16 19 26 39 23 26 35 29 26 26 19 16 23 19 23 23 23 23 19 19 29 32 32 39 42 42 26 29
45 55 32 6 0 3 3 0 0 0 0 0 0 0 0 3 0 0 3 3 10 13 10 13 35 32 26 26 23 23 19 16 19 13 16 23 19 19 19 19 23 29 39 42 42 42 35 26 23
58 48 10 6 0 0 0 3 0 0 0 3 3 0 3 6 6 6 6 6 10 16 10 16 42 35 35 29 26 23 19 19 19 16 16 16 23 23 13 23 35 29 35 39 39 29 32 32 26
48 29 13 3 6 3 0 3 0 0 0 3 3 3 3 10 10 6 6 10 16 19 16 13 23 29 45 39 26 19 19 16 16 16 16 16 16 16 26 32 35 35 29 32 35 35 29 23 26
35 23 6 6 3 0 0 0 3 3 0 3 3 3 3 10 10 6 10 13 19 16 16 16 10 19 13 29 32 23 10 10 19 19 19 23 26 19 26 19 32 32 39 35 32 35 26 19 23
13 13 10 6 6 3 0 0 0 0 3 3 3 3 6 6 6 10 10 10 10 16 19 16 16 16 13 10 16 19 13 10 19 13 19 10 6 6 6 19 39 39 39 32 26 23 23 19 13
13 13 3 6 6 3 0 0 0 0 3 3 6 6 6 6 6 10 13 13 16 13 19 16 19 19 10 6 16 13 10 6 3 10 3 6 6 3 6 16 35 42 39 29 29 29 19 13 0
6 6 6 3 3 3 0 0 0 0 0 3 3 3 3 6 6 6 6 10 10 13 13 10 13 13 3 6 6 10 10 10 10 10 3 3 3 3 3 3 13 13 16 10 19 13 6 0 3
0 0 0 3 3 3 0 3 3 0 0 0 3 3 3 3 0 0 0 3 6 6 6 10 10 10 10 10 10 10 10 6 10 3 3 0 3 6 6 13 10 10 10 6 3 3 0 0 0
0 0 0 3 3 3 0 0 0 3 0 3 3 3 3 3 3 3 3 0 3 10 10 13 10 13 13 13 10 10 10 6 3 6 3 3 3 0 6 3 6 6 6 0 0 0 0 0 0
0 0 0 3 3 0 0 0 0 0 0 3 0 0 0 0 3 6 6 3 3 6 6 6 13 13 10 10 10 10 6 0 6 6 0 0 0 0 3 0 6 6 3 0 0 0 0 0 0
0 0 0 3 3 0 0 0 0 0 0 0 0 0 0 0 3 0 0 6 6 0 6 3 6 13 13 6 6 6 3 3 3 0 0 0 0 0 0 0 3 6 0 0 0 0 0 0 0
0 0 0 0 0 0 0 0 0 0 0 0 0 0 0 0 0 0 3 0 3 6 6 10 3 6 6 10 6 6 6 6 6 0 0 0 0 0 0 3 0 0 0 0 0 0 0 0 0
0 0 0 0 0 0 0 0 0 0 0 0 0 0 0 0 0 0 3 3 0 3 6 10 6 3 6 3 6 6 6 6 3 6 0 0 0 0 3 3 6 0 0 0 0 0 0 0 0
0 0 0 0 0 0 0 0 0 0 0 0 0 0 0 0 0 0 6 0 0 3 10 10 13 3 6 3 6 6 6 6 6 3 3 0 0 0 0 3 3 6 0 0 0 0 0 0 0
0 0 0 0 0 0 0 0 0 0 0 0 0 0 0 0 0 0 6 6 0 6 10 10 10 6 0 3 3 6 6 6 10 10 6 6 0 0 0 0 0 0 0 0 0 0 0 0 0
0 0 0 0 0 0 0 0 0 0 0 0 0 0 0 0 0 3 0 3 3 6 6 6 6 6 0 0 3 3 3 3 6 13 3 6 0 0 3 0 0 0 0 0 0 3 0 0 0
0 0 0 0 0 0 0 0 0 0 0 0 0 0 0 0 3 3 3 3 3 10 6 6 6 6 3 0 0 0 0 10 10 6 10 3 3 3 3 0 0 3 3 3 3 3 0 0 0
0 0 0 0 0 0 0 0 0 0 0 0 0 0 0 0 3 3 3 3 3 6 10 10 6 6 3 0 3 10 6 3 3 3 13 10 10 3 0 3 3 0 0 3 3 3 3 3 3
0 0 0 0 0 0 0 0 0 0 0 0 0 0 0 0 0 0 0 3 3 6 6 10 10 6 6 3 3 6 6 6 3 3 10 10 10 6 6 6 3 3 3 3 3 0 3 3 0
0 0 0 0 0 0 0 0 0 0 0 0 0 0 0 0 0 0 3 3 3 3 6 10 13 13 10 6 6 6 6 3 3 3 3 6 6 3 3 6 3 3 3 3 0 0 3 3 3
0 0 0 0 0 0 0 0 0 0 0 0 0 0 0 0 0 3 3 3 3 0 6 6 10 10 13 6 6 10 6 3 6 6 6 3 3 3 3 3 3 3 3 3 3 3 3 3 3
0 0 0 0 0 0 0 0 0 0 0 0 0 0 0 0 0 3 3 0 3 6 6 3 6 6 13 10 6 6 6 10 3 3 6 6 3 0 0 6 3 3 3 3 3 3 3 3 3
0 0 0 0 0 0 0 0 0 0 0 0 0 0 0 0 3 3 3 0 0 6 10 6 6 6 6 10 10 6 6 6 10 6 6 6 3 3 3 3 6 3 3 3 3 3 3 3 3
0 0 0 0 0 0 0 0 0 0 0 0 0 0 0 0 3 3 3 3 3 3 6 3 3 3 3 0 3 6 3 3 6 6 6 10 3 3 3 3 3 3 3 3 3 3 3 3 3
0 0 0 0 0 0 0 0 0 0 0 0 0 0 0 0 3 3 0 3 3 3 3 3 3 3 3 0 0 0 3 3 3 6 6 6 3 3 3 3 3 3 3 3 3 3 3 0 0
0 0 0 0 0 0 0 0 0 0 0 0 0 0 0 0 3 0 0 3 3 3 0 3 3 3 3 0 0 0 3 3 6 6 10 6 3 3 3 3 3 3 3 3 3 3 0 0 0

GEFSSGP_con_cape1000_234.txt.gz
Probability
52 39 32 13 0 0 0 0 0 0 0 0 0 0 0 0 0 0 0 10 16 23 39 48 48 48 48 48 48 42 32 29 35 39 39 45 45 42 39 35 45 48 48 48 52 55 52 52 48
45 39 19 0 0 0 0 0 0 0 0 0 0 0 0 0 0 0 3 19 23 23 26 35 52 48 48 52 45 42 35 32 32 32 39 42 39 35 39 39 42 45 42 42 52 48 45 39 39
39 39 3 0 0 0 0 0 0 0 0 0 0 0 0 0 0 0 6 16 13 19 26 39 48 52 52 48 45 35 35 39 32 23 32 35 32 32 35 39 48 45 39 39 42 39 32 35 52
29 10 0 0 0 0 0 0 0 0 0 0 0 0 0 0 0 3 6 16 13 19 19 39 42 48 45 45 42 35 39 35 32 29 29 32 32 32 32 32 35 32 32 35 35 39 48 42 42
16 0 0 0 0 0 0 0 0 0 0 0 0 0 0 0 6 6 6 10 13 16 19 26 48 39 39 42 42 35 32 32 26 29 29 29 29 32 26 29 26 29 29 29 39 45 42 39 39
3 0 0 0 0 0 0 0 0 0 0 0 0 0 3 0 6 6 6 13 13 13 23 26 48 39 39 39 35 35 29 26 23 29 23 23 23 23 26 29 26 29 35 45 39 32 39 32 29
3 0 0 0 0 0 0 0 0 0 0 0 0 0 3 0 0 3 3 10 13 16 19 23 32 45 48 42 39 35 29 29 19 23 23 26 19 26 23 23 26 29 32 32 29 35 32 29 29
3 0 0 0 0 0 0 0 0 0 3 3 3 0 0 0 0 0 3 6 10 10 16 13 23 23 26 26 45 45 29 32 29 29 23 32 23 16 19 26 29 23 23 26 23 16 19 19 19
0 0 0 0 0 0 0 0 0 3 3 3 3 3 3 3 0 0 3 6 6 10 10 16 10 13 13 16 19 29 39 29 29 16 16 16 6 3 13 23 29 29 26 26 19 19 16 16 23
0 0 0 0 0 0 0 0 0 0 0 0 3 6 3 0 0 0 3 3 10 13 10 10 10 10 6 13 13 3 3 3 3 0 3 3 3 3 3 13 29 32 32 29 26 29 23 6 0
0 0 0 0 0 0 0 0 0 0 0 0 0 6 3 0 0 3 3 6 3 6 6 10 6 6 3 3 0 0 0 0 0 0 0 3 3 3 3 3 10 10 6 6 13 10 0 0 0
0 0 0 3 0 0 0 0 0 0 0 0 0 3 3 0 0 3 3 6 3 3 3 13 10 6 3 3 3 0 0 0 0 0 0 0 0 0 0 0 0 0 0 0 0 0 0 0 0
0 0 0 3 0 0 0 0 0 0 0 0 0 0 0 0 0 0 0 3 3 3 6 6 6 3 3 3 3 3 3 0 0 0 0 0 0 0 0 0 0 0 0 0 0 0 0 0 0
0 0 0 3 0 0 0 0 0 0 0 0 0 0 0 0 0 0 0 0 3 6 3 3 0 0 3 3 3 0 3 3 3 0 0 0 0 0 0 0 0 0 0 0 0 0 0 0 0
0 0 0 0 0 0 0 0 0 0 0 0 0 0 0 0 0 0 0 0 3 3 3 3 3 0 0 6 3 0 0 0 0 0 0 0 0 0 0 0 0 0 0 0 0 0 0 0 0
0 0 0 0 0 0 0 0 0 0 0 0 0 0 0 0 0 0 0 0 0 3 3 3 3 0 0 0 0 0 0 0 0 0 0 0 0 0 0 0 0 0 0 0 0 0 0 0 0
0 0 0 0 0 0 0 0 0 0 0 0 0 0 0 0 0 0 0 0 0 3 3 3 3 0 0 0 0 0 0 0 0 0 0 0 0 0 0 0 0 0 0 0 0 0 0 0 0
0 0 0 0 0 0 0 0 0 0 0 0 0 0 0 0 0 0 0 0 0 0 3 3 3 3 0 0 0 0 0 0 0 0 0 0 0 0 0 0 0 0 0 0 0 0 0 0 0
0 0 0 0 0 0 0 0 0 0 0 0 0 0 0 0 0 0 0 0 3 0 3 3 3 3 0 0 0 0 0 0 0 0 0 0 0 0 0 0 0 0 0 0 0 0 0 0 0
0 0 0 0 0 0 0 0 0 0 0 0 0 0 0 0 0 0 0 0 3 3 3 3 3 3 3 0 0 0 0 0 0 0 0 0 0 0 0 0 0 0 0 0 0 0 0 0 0
0 0 0 0 0 0 0 0 0 0 0 0 0 0 0 0 0 0 0 0 0 0 3 6 3 3 3 0 0 0 0 0 0 0 0 0 0 0 0 0 0 0 0 0 0 0 0 0 0
0 0 0 0 0 0 0 0 0 0 0 0 0 0 0 0 0 0 3 0 0 0 0 0 6 3 0 0 0 0 0 0 0 0 0 0 0 0 0 0 0 0 0 0 0 0 0 0 0
0 0 0 0 0 0 0 0 0 0 0 0 0 0 0 0 0 0 0 0 0 0 0 0 6 3 0 0 0 0 0 0 0 0 0 0 0 0 0 0 0 0 0 0 0 0 0 0 0
0 0 0 0 0 0 0 0 0 0 0 0 0 0 0 0 0 0 0 3 0 0 0 3 3 3 0 0 0 0 0 0 0 0 0 0 0 0 0 0 0 0 0 0 0 0 0 0 0
0 0 0 0 0 0 0 0 0 0 0 0 0 0 0 0 0 0 0 0 3 3 0 3 3 3 0 0 0 0 0 0 0 0 0 0 0 0 0 0 0 0 0 0 0 0 0 0 0
0 0 0 0 0 0 0 0 0 0 0 0 0 0 0 0 0 0 0 0 3 3 3 0 3 3 0 0 0 0 0 0 0 0 0 0 0 0 0 0 0 0 0 0 0 0 0 0 0
0 0 0 0 0 0 0 0 0 0 0 0 0 0 0 0 0 0 0 0 3 3 3 3 3 3 3 0 0 0 0 0 0 0 0 0 0 0 0 0 0 0 0 0 0 0 0 0 0
0 0 0 0 0 0 0 0 0 0 0 0 0 0 0 0 0 0 0 0 0 0 0 0 0 3 3 3 0 0 0 0 0 0 0 0 0 0 0 0 0 0 0 0 0 0 0 0 0
0 0 0 0 0 0 0 0 0 0 0 0 0 0 0 0 0 0 0 0 0 0 0 0 0 0 3 3 0 0 0 0 0 0 0 0 0 0 0 0 0 0 0 0 0 0 0 0 0
0 0 0 0 0 0 0 0 0 0 0 0 0 0 0 0 0 0 0 0 0 0 0 0 0 0 0 3 0 0 0 0 0 0 0 0 0 0 0 0 3 0 0 0 0 0 0 0 0

GEFSSGP_con_cape1000_240.txt.gz
Probability
58 35 6 0 0 0 0 0 0 0 0 0 0 0 0 0 0 0 0 0 6 10 19 42 52 45 39 45 45 39 32 26 29 48 48 48 42 45 45 48 45 55 55 55 52 58 52 52 55
42 23 0 0 0 0 0 0 0 0 0 0 0 0 0 0 0 0 3 13 16 19 19 32 48 48 45 42 35 29 26 23 26 29 35 39 35 35 45 52 45 42 42 42 48 52 45 48 55
32 6 0 0 0 0 0 0 0 0 0 0 0 0 0 0 0 0 3 13 23 19 19 29 45 48 42 45 35 35 29 26 23 23 26 32 32 32 39 52 45 42 39 39 42 48 52 55 58
6 0 0 0 0 0 0 0 0 0 0 0 0 0 0 0 0 6 16 19 16 19 19 19 42 42 39 39 39 32 32 29 29 26 26 26 23 35 29 39 42 45 42 35 42 42 48 48 42
0 0 0 0 0 0 0 0 0 0 0 0 0 0 0 0 6 16 16 16 16 16 16 19 32 39 32 39 35 32 35 32 29 26 19 19 23 26 29 35 45 45 39 39 42 45 39 35 42
0 0 0 0 0 0 0 0 0 0 0 0 0 0 0 6 6 13 13 13 19 16 19 23 29 35 32 32 35 32 26 32 29 29 23 23 23 26 23 29 35 35 32 35 39 35 35 39 42
0 0 0 0 0 0 0 0 0 0 0 0 0 0 0 3 6 10 10 10 16 19 19 23 23 26 35 45 39 35 35 35 32 26 23 19 23 19 23 29 29 32 32 29 35 32 35 35 39
0 0 0 0 0 0 0 0 0 3 3 3 3 0 0 3 3 6 10 10 13 13 16 19 19 26 23 26 39 39 35 39 42 39 26 19 13 13 19 19 23 32 26 23 19 23 29 32 35
0 0 0 0 0 0 0 0 0 0 3 3 3 0 0 6 0 6 6 6 13 13 13 16 16 16 16 16 23 26 29 29 29 10 16 16 6 3 6 16 19 23 32 23 19 19 23 32 29
0 0 0 0 0 0 0 0 0 0 0 0 3 3 3 3 0 3 3 3 3 3 13 10 13 16 10 13 6 6 6 6 6 3 3 3 3 3 3 10 29 29 23 26 29 23 19 0 0
0 0 0 0 0 0 0 0 0 0 0 0 0 3 3 3 0 3 3 6 3 3 6 6 13 6 10 6 3 3 0 0 0 0 0 3 3 3 3 3 3 3 6 3 3 0 0 0 0
0 0 0 0 0 0 0 0 0 0 0 0 0 3 3 3 0 3 3 3 3 3 3 3 6 0 3 6 6 0 0 0 0 0 0 0 0 0 0 3 3 0 0 0 0 0 0 0 0
0 0 0 0 0 0 0 0 0 0 0 0 3 3 3 3 3 0 6 3 3 3 6 3 6 0 0 3 3 0 0 0 0 0 0 0 0 0 0 0 0 0 0 0 0 0 0 0 0
0 0 0 0 0 0 0 0 0 0 0 0 3 3 3 3 3 3 3 3 3 3 6 6 6 0 0 0 0 0 0 0 0 0 0 0 0 0 0 0 0 0 0 0 0 0 0 0 0
0 0 0 0 0 0 0 0 0 0 0 0 0 3 3 3 3 0 3 3 3 6 6 6 6 0 0 0 0 0 0 0 0 0 0 0 0 0 0 0 0 0 0 0 0 0 0 0 0
0 0 0 0 0 0 0 0 0 0 0 0 0 0 0 3 0 0 0 3 3 3 6 6 6 0 0 0 0 0 0 0 0 0 0 0 0 0 0 0 0 0 0 0 0 0 0 0 0
0 0 0 0 0 0 0 0 0 0 0 0 0 0 0 0 0 0 0 3 3 3 0 6 3 3 3 0 0 0 0 0 0 0 0 0 0 0 0 0 0 0 0 0 0 0 0 0 0
0 0 0 0 0 0 0 0 0 0 0 0 0 0 0 0 0 0 0 0 3 0 0 3 3 0 0 0 0 0 0 0 0 0 0 0 0 0 0 0 0 0 0 0 0 0 0 0 0
0 0 0 0 0 0 0 0 0 0 0 0 0 0 0 0 0 0 0 0 0 0 0 3 3 0 0 0 0 0 0 0 0 0 0 0 0 0 0 0 0 0 0 0 0 0 0 0 0
0 0 0 0 0 0 0 0 0 0 0 0 0 0 0 0 0 0 0 0 0 0 0 3 3 3 0 0 0 0 0 0 0 0 0 0 0 0 0 0 0 0 0 0 0 0 0 0 0
0 0 0 0 0 0 0 0 0 0 0 0 0 0 0 0 0 0 0 0 0 0 0 0 3 3 0 0 0 0 0 0 0 0 0 0 0 0 0 0 0 0 0 0 0 0 0 0 0
0 0 0 0 0 0 0 0 0 0 0 0 0 0 0 0 0 0 0 0 0 0 0 0 3 3 0 0 0 0 0 0 0 0 0 0 0 0 0 0 0 0 0 0 0 0 0 0 0
0 0 0 0 0 0 0 0 0 0 0 0 0 0 0 0 0 0 0 0 0 0 0 0 3 3 3 0 0 0 0 0 0 0 0 0 0 0 0 0 0 0 0 0 0 0 0 0 0
0 0 0 0 0 0 0 0 0 0 0 0 0 0 0 0 0 0 0 0 0 0 0 0 3 3 3 3 3 3 0 0 0 0 0 0 0 0 0 0 0 0 0 0 0 0 0 0 0
0 0 0 0 0 0 0 0 0 0 0 0 0 0 0 0 0 0 0 0 0 0 0 0 3 3 3 3 3 3 0 0 0 0 0 0 0 0 0 0 0 0 0 0 0 0 0 0 0
0 0 0 0 0 0 0 0 0 0 0 0 0 0 0 0 0 0 0 0 0 0 0 0 3 3 3 3 3 3 0 0 0 0 0 0 0 0 0 0 0 0 0 0 0 0 0 0 0
0 0 0 0 0 0 0 0 0 0 0 0 0 0 0 0 0 0 0 0 0 0 0 0 0 3 3 3 3 3 0 0 0 0 0 0 0 0 0 0 0 0 0 0 0 0 0 0 0
0 0 0 0 0 0 0 0 0 0 0 0 0 0 0 0 0 0 0 0 0 0 0 0 0 3 3 3 3 3 0 0 0 0 0 0 0 0 0 0 0 0 0 0 0 0 0 0 0
0 0 0 0 0 0 0 0 0 0 0 0 0 0 0 0 0 0 0 0 0 0 0 0 0 0 0 3 0 0 0 0 0 0 0 0 0 0 0 0 0 0 0 0 0 0 0 0 0
0 0 0 0 0 0 0 0 0 0 0 0 0 0 0 0 0 0 0 0 0 0 0 0 0 0 0 0 0 0 0 0 0 0 0 0 0 0 0 0 0 0 0 0 0 0 0 0 0

GEFSSGP_con_cape1000_246.txt.gz
Probability
65 58 35 29 3 0 0 0 0 0 0 0 0 0 0 0 0 0 3 10 6 10 19 26 35 35 39 35 35 29 26 23 23 35 32 39 39 35 39 45 42 42 39 39 52 45 52 48 48
55 39 13 10 0 0 0 0 0 0 0 0 0 0 0 0 0 0 3 13 6 6 19 13 45 42 42 32 35 32 23 26 26 26 32 35 35 42 42 39 45 35 35 32 32 45 48 48 52
32 19 6 0 0 0 0 0 0 0 0 0 0 0 0 0 0 0 3 10 10 10 13 16 42 42 42 35 39 32 32 29 23 19 23 26 32 29 32 35 42 42 29 29 42 39 39 48 48
29 16 3 0 3 0 0 0 3 3 0 0 0 0 0 0 0 0 10 10 10 16 19 19 32 35 42 32 35 35 29 26 26 26 19 23 29 29 32 29 39 39 26 32 35 39 39 39 39
16 13 0 0 0 0 0 0 3 3 0 0 0 0 0 0 3 10 13 10 10 19 19 16 32 32 32 39 39 32 35 35 23 19 16 26 26 19 32 29 29 32 26 32 35 29 35 32 35
13 3 0 0 0 3 0 0 0 0 0 0 0 0 0 0 3 16 16 16 13 16 19 16 26 35 32 32 42 45 32 35 29 23 16 23 19 23 16 29 26 29 26 26 32 32 35 35 39
6 3 3 3 0 0 0 0 0 0 0 0 0 0 0 3 13 19 23 16 16 19 19 23 19 26 29 35 42 48 39 32 29 32 19 19 23 19 16 23 26 29 26 19 26 35 39 35 39
10 6 3 3 3 0 0 0 3 3 3 3 0 0 0 10 19 23 23 16 19 16 19 19 19 19 19 19 29 35 39 35 23 19 19 16 13 13 13 23 19 26 26 26 23 23 26 29 29
6 3 0 3 3 0 3 0 3 3 3 3 3 0 3 16 19 19 13 13 16 16 16 19 19 23 23 32 26 29 29 35 23 16 16 13 6 6 10 16 29 26 26 19 23 23 19 19 19
6 6 3 6 6 3 3 3 0 3 0 0 0 6 6 13 19 10 6 10 19 16 19 10 10 13 19 16 26 29 23 23 16 10 6 10 10 10 10 10 19 16 19 19 23 23 19 13 16
6 6 3 6 3 3 3 3 3 0 3 0 0 3 6 10 13 3 6 3 10 10 6 6 6 6 10 13 19 19 23 23 13 6 3 6 10 10 13 13 16 23 13 13 10 10 6 10 10
3 3 3 6 3 3 6 3 3 0 0 0 3 6 6 10 6 3 0 3 3 6 10 10 10 3 6 10 13 13 13 16 19 13 10 6 3 6 10 13 13 16 16 19 13 13 6 6 10
0 0 0 0 3 3 3 3 0 0 0 0 6 3 3 3 6 6 3 3 6 6 6 10 10 6 3 6 16 0 13 13 13 19 13 6 13 6 0 6 13 6 10 10 13 6 6 10 3
0 0 0 3 3 3 3 3 0 0 0 6 6 3 3 3 6 10 10 6 6 6 3 6 10 10 6 10 10 13 13 19 13 13 10 3 3 0 0 3 6 3 6 3 10 3 3 6 6
0 0 0 3 3 3 3 3 3 3 0 6 3 3 3 6 10 10 10 13 6 6 6 6 10 10 6 6 6 10 13 13 10 10 10 3 3 0 3 0 0 0 0 3 3 0 0 3 3
0 0 0 3 3 3 3 3 3 0 0 3 3 3 3 6 6 6 6 6 6 6 6 10 10 10 10 6 6 13 6 10 16 13 10 6 3 0 3 0 0 0 0 0 10 6 3 0 3
0 0 0 0 3 3 3 3 3 0 0 0 3 3 3 3 6 6 6 6 6 6 3 6 10 6 6 10 3 10 6 10 10 10 10 6 0 0 10 6 3 0 0 3 3 6 6 0 0
0 0 0 0 3 3 3 3 3 0 0 0 0 3 3 3 3 3 3 6 6 6 6 3 10 10 6 6 3 6 10 6 10 10 3 3 6 0 3 3 3 3 3 6 6 6 6 10 3
0 0 0 0 0 0 0 3 3 0 0 0 3 3 3 3 0 0 0 3 6 6 6 6 3 10 10 6 6 6 6 6 3 0 3 3 6 3 3 3 3 10 6 6 6 3 6 3 3
0 0 0 0 0 0 0 0 3 3 0 0 0 0 3 0 0 0 0 3 6 6 6 6 3 6 10 10 6 6 6 10 0 0 3 3 3 3 0 6 6 10 13 6 6 3 6 3 3
0 0 0 0 0 0 0 0 0 3 0 0 0 0 0 0 0 0 0 0 6 6 3 3 3 6 10 10 6 3 3 3 0 0 6 3 3 3 0 3 3 0 3 13 10 6 3 3 3
0 0 0 0 0 0 0 0 0 0 3 0 0 0 0 0 3 3 0 0 3 10 3 3 3 3 6 6 6 6 6 3 0 0 0 0 0 0 0 0 6 3 3 10 6 6 10 6 6
0 0 0 0 0 0 0 0 0 0 0 0 3 0 0 0 3 3 3 6 3 6 3 6 3 0 6 6 6 6 3 3 3 3 0 0 0 0 0 3 3 3 3 3 6 6 6 10 10
0 0 0 0 0 0 0 0 0 0 0 0 0 3 0 0 3 3 3 6 3 3 3 3 0 3 6 6 6 6 3 3 3 3 3 3 0 0 0 0 3 3 0 6 6 10 10 6 6
0 0 0 0 0 0 0 0 0 0 0 0 0 0 3 3 0 3 3 6 6 3 3 6 3 3 6 6 6 6 3 3 3 3 3 3 0 3 0 3 3 3 3 6 6 10 6 6 3
0 0 0 0 0 0 0 0 0 0 0 0 0 0 0 0 0 0 3 6 6 3 3 6 0 3 3 6 6 6 3 3 3 3 3 3 6 3 0 3 3 3 3 3 6 10 6 3 3
0 0 0 0 0 0 0 0 0 0 0 0 0 0 0 0 0 0 0 0 3 3 3 3 3 3 3 3 3 6 6 6 6 3 3 3 3 3 0 3 3 3 3 3 3 10 6 6 3
0 0 0 0 0 0 0 0 0 0 0 0 0 0 0 0 0 0 0 0 3 3 3 3 0 0 3 3 3 3 3 6 6 3 3 3 3 6 3 3 3 3 3 3 3 3 10 3 3
0 0 0 0 0 0 0 0 0 0 0 0 0 0 0 0 0 0 0 0 0 3 3 3 3 0 0 0 3 3 3 3 3 3 3 3 3 3 3 6 3 3 3 3 6 3 3 3 3
0 0 0 0 0 0 0 0 0 0 0 0 0 0 0 0 3 0 3 3 0 0 3 3 3 0 0 0 3 3 6 6 6 6 6 6 6 6 3 3 3 3 3 3 3 3 3 3 6

GEFSSGP_con_cape1000_252.txt.gz
Probability
74 68 71 84 81 35 0 0 0 3 0 0 0 0 0 0 0 3 13 6 16 23 26 42 45 52 39 39 26 26 26 32 29 32 35 32 35 39 39 39 29 32 32 39 42 45 48 48 42
68 61 52 68 39 6 3 3 6 3 0 0 0 0 0 0 0 3 10 6 19 13 16 32 45 48 39 39 35 29 32 32 29 23 26 26 26 39 39 26 26 26 29 35 35 32 32 42 39
65 45 48 55 13 3 3 3 3 0 0 0 0 0 0 0 0 3 3 6 16 10 13 32 45 48 42 35 32 29 26 29 26 23 23 16 26 35 35 26 23 16 23 29 26 29 29 29 29
65 58 48 19 3 3 3 3 3 0 0 0 0 0 0 0 0 0 0 10 16 16 16 26 48 42 32 35 32 29 32 26 29 23 16 19 19 26 26 26 26 23 29 29 29 26 26 26 32
52 65 32 6 3 3 3 0 3 0 0 0 0 0 0 0 0 0 6 10 13 19 19 19 42 32 29 32 29 26 29 23 16 16 19 16 19 23 23 19 16 13 29 26 26 26 29 35 32
71 42 6 3 3 3 3 0 3 0 0 0 0 0 3 0 3 6 13 13 13 23 26 19 42 39 32 32 32 19 23 19 16 19 16 19 19 23 23 19 16 26 23 32 26 26 29 26 26
42 29 3 0 3 3 0 0 0 0 0 0 0 0 3 0 13 6 13 13 16 16 26 29 26 29 32 39 35 26 23 23 19 19 19 13 26 19 19 19 19 16 23 23 26 29 32 23 19
29 26 0 3 3 3 3 3 3 3 3 0 0 0 3 10 13 10 13 16 16 16 16 16 26 29 32 29 42 35 32 26 23 26 26 16 10 16 26 19 23 19 26 23 23 26 19 16 13
6 13 6 3 6 6 0 0 3 3 3 3 6 0 3 10 6 6 3 6 13 13 16 13 13 19 26 19 26 32 35 29 29 26 35 23 6 6 6 13 23 16 29 23 19 23 23 19 26
10 13 6 6 6 6 3 3 3 0 0 3 3 3 3 3 0 3 3 3 10 6 6 10 10 10 13 19 26 26 26 29 19 13 6 6 6 6 6 10 26 23 23 26 19 23 29 23 10
6 13 10 6 6 6 6 3 3 0 0 0 3 3 3 6 6 3 0 3 3 3 3 3 3 3 3 10 16 16 16 19 16 10 10 10 6 6 6 6 13 10 10 10 16 23 13 10 10
3 3 6 6 6 6 6 6 0 3 3 0 3 3 3 3 6 3 0 3 3 3 3 3 3 3 3 13 13 13 16 6 13 13 6 6 6 6 10 6 6 6 6 10 6 6 6 3 3
3 3 3 6 6 6 6 3 3 3 3 0 3 3 3 3 0 0 0 3 3 3 3 3 6 6 3 6 13 13 16 13 13 16 6 3 3 0 3 0 0 6 6 3 3 3 0 0 0
3 3 3 3 6 6 3 3 3 3 3 0 3 3 3 0 0 0 0 0 0 3 3 3 3 6 3 3 6 6 6 16 16 10 10 10 3 3 0 0 0 3 6 3 3 3 0 3 0
3 3 3 6 3 6 3 0 3 3 3 0 3 3 3 0 0 0 0 0 0 3 3 3 3 3 3 3 6 10 10 13 6 10 10 10 6 0 0 0 0 3 0 3 3 0 3 3 0
0 0 0 3 3 3 0 3 3 3 0 0 3 3 3 3 0 0 0 0 0 3 3 3 3 3 3 3 10 10 10 13 13 10 6 3 3 0 0 0 0 0 0 6 0 0 3 0 0
0 0 0 0 3 3 3 3 3 0 0 0 0 3 3 0 0 3 3 3 3 6 3 3 6 3 3 6 3 6 6 10 10 6 10 3 0 0 0 3 0 0 0 6 6 0 0 0 3
0 0 0 0 3 0 0 0 3 3 0 0 0 3 3 3 0 3 3 3 3 3 6 3 3 6 10 6 3 6 6 6 3 6 6 3 3 3 0 0 3 0 0 3 3 0 3 3 3
0 0 0 0 0 0 0 0 3 3 3 0 0 6 6 3 0 0 3 3 3 3 6 3 6 6 6 10 3 3 3 3 3 6 6 3 3 0 0 0 0 3 0 6 6 10 3 3 3
0 0 0 0 0 0 0 0 3 3 3 0 0 0 6 6 3 3 3 3 3 3 3 6 3 3 6 13 10 6 3 3 3 6 10 6 3 0 0 0 3 0 3 6 3 6 6 3 3
0 0 0 0 0 0 0 0 0 3 3 6 0 3 3 6 3 3 3 3 3 3 3 6 3 3 6 13 13 6 3 3 3 10 10 6 3 0 0 0 0 0 0 3 3 10 6 3 3
0 0 0 0 0 0 0 0 0 3 3 3 0 0 3 3 3 3 6 6 6 3 3 6 6 3 3 6 10 6 3 6 6 10 3 6 0 0 0 0 0 0 0 0 3 6 6 3 3
0 0 0 0 0 0 0 0 0 3 3 3 3 3 3 3 3 3 3 3 6 6 6 6 6 3 3 6 10 10 6 6 6 6 3 3 0 0 0 0 0 0 0 0 0 0 0 3 3
0 0 0 0 0 0 0 0 0 0 3 3 3 0 3 3 10 3 6 10 6 6 6 6 6 6 3 10 13 13 10 6 3 3 3 3 3 0 0 0 0 3 3 3 3 3 3 3 3
0 0 0 0 0 0 0 0 0 0 3 6 6 3 3 6 6 3 6 6 3 6 10 6 6 6 10 6 10 10 10 6 6 3 3 3 3 0 0 0 3 3 3 3 3 3 3 3 3
0 0 0 0 0 0 0 0 0 0 3 3 6 3 3 6 3 3 6 6 3 6 6 6 10 10 10 10 10 10 6 3 3 3 3 3 3 0 0 0 3 3 3 3 3 3 3 3 3
0 0 0 0 0 0 0 0 0 0 3 3 3 0 3 10 6 3 6 0 3 3 3 6 6 6 3 3 6 10 6 6 3 6 3 3 3 0 0 3 3 3 3 3 3 3 3 3 3
0 0 0 0 0 0 0 0 0 6 3 3 0 0 3 3 3 3 3 3 0 0 6 3 6 6 6 3 6 6 6 6 10 6 3 3 3 0 3 3 3 3 3 3 3 3 3 3 3
0 0 0 0 0 0 0 0 0 3 3 3 3 0 3 3 0 3 3 0 0 0 3 3 0 3 0 3 3 3 3 6 6 6 6 3 3 0 0 3 3 3 3 3 3 3 3 3 3
0 0 0 0 0 0 0 0 0 3 3 3 3 0 3 3 3 0 0 0 0 0 0 0 3 0 3 3 0 3 3 3 3 6 10 3 3 3 3 3 3 3 3 3 3 3 3 3 3

GEFSSGP_con_cape1000_258.txt.gz
Probability
74 55 52 13 0 0 0 0 0 0 0 0 0 0 0 0 0 0 0 6 3 13 42 45 52 45 42 39 35 32 26 23 29 32 39 35 39 35 35 35 42 29 35 52 42 45 48 42 39
48 39 16 0 0 0 0 0 0 0 0 0 0 0 0 0 0 0 3 16 13 16 32 42 52 48 39 32 35 32 29 23 23 26 29 32 35 29 29 26 35 23 23 35 42 45 42 42 42
48 35 6 3 3 0 0 0 0 0 0 0 0 0 0 0 3 0 6 16 13 16 26 45 52 45 45 42 39 32 35 23 26 26 23 29 35 35 29 26 26 26 23 26 35 39 32 35 45
26 6 0 3 0 0 0 0 0 0 0 0 0 0 0 0 0 6 10 10 13 13 26 48 55 42 48 39 26 26 29 26 26 23 23 29 32 35 32 26 29 26 26 26 26 26 29 35 45
19 0 0 0 0 0 0 0 0 0 0 0 0 0 0 0 6 10 6 6 6 10 13 45 65 48 48 45 29 29 29 29 26 19 23 32 32 29 32 32 29 23 23 26 26 26 32 35 39
3 0 0 0 0 0 0 0 0 0 0 0 0 0 0 3 10 10 10 10 10 13 13 45 65 65 52 45 32 35 29 32 23 23 26 29 29 32 29 19 16 13 16 23 29 32 26 26 35
0 0 0 0 0 0 0 0 0 0 0 0 0 0 0 3 0 3 3 6 13 13 13 16 39 52 65 58 48 35 35 35 29 26 23 29 32 29 26 23 19 16 13 16 23 23 29 23 29
0 0 0 0 0 0 0 0 0 0 0 0 0 0 0 0 0 3 3 3 3 6 13 13 13 13 26 29 55 52 42 42 39 32 39 39 35 26 23 26 23 19 13 13 19 13 23 23 32
0 0 0 0 0 0 0 0 0 0 0 0 0 0 0 0 3 3 3 3 3 6 6 6 10 10 10 6 32 39 45 35 32 29 32 26 3 6 6 16 29 26 23 13 16 19 19 32 29
0 0 0 0 0 0 0 0 0 0 0 0 0 0 0 3 3 3 3 6 3 6 6 6 10 10 6 6 6 6 16 19 16 10 6 3 3 3 6 6 26 23 23 26 32 29 19 13 0
0 0 0 0 0 0 0 0 0 0 0 0 0 0 0 0 3 6 3 3 6 6 6 6 6 10 6 6 6 6 6 10 13 6 3 3 3 3 3 3 6 6 10 3 10 10 0 0 0
0 0 3 3 3 0 0 0 0 0 0 0 0 0 0 0 3 6 6 6 6 6 6 3 3 10 10 6 3 3 3 0 3 0 0 0 0 0 3 3 0 0 0 0 0 0 0 0 0
0 0 3 3 3 0 0 0 0 0 0 0 0 0 0 0 0 3 3 6 6 6 3 3 6 10 10 6 3 3 3 0 0 0 0 0 0 0 0 0 0 0 0 0 0 0 0 0 0
0 0 0 3 3 3 3 0 0 3 3 0 0 0 0 0 0 0 0 3 3 3 3 3 3 3 6 6 6 6 0 0 0 0 0 0 0 0 0 0 0 0 0 0 0 0 0 0 0
0 0 0 0 3 3 3 0 0 3 3 3 3 0 0 0 0 0 0 3 3 3 3 3 3 3 6 3 3 3 3 3 0 0 0 0 0 0 0 0 0 0 0 0 0 0 0 0 0
0 0 0 0 0 0 0 0 0 3 3 3 3 3 0 0 0 0 0 3 3 3 3 3 3 6 6 3 3 3 3 3 0 0 0 0 0 0 0 0 0 0 0 0 0 0 0 0 0
0 0 0 0 0 0 0 0 0 3 3 3 3 3 0 0 0 0 0 0 3 3 3 3 3 6 6 6 3 3 3 3 0 0 0 0 0 0 0 0 0 0 0 0 0 0 0 0 0
0 0 0 0 0 0 0 0 0 3 3 3 3 3 0 0 0 0 0 0 0 0 3 3 0 0 3 3 0 3 3 0 0 0 0 0 0 0 0 0 0 0 0 0 0 0 0 0 0
0 0 0 0 0 0 0 0 0 3 3 3 3 3 3 0 0 0 0 0 0 0 0 3 0 0 0 0 0 0 0 0 0 0 0 0 0 0 0 0 0 0 0 0 0 0 0 0 0
0 0 0 0 0 0 0 0 0 0 3 3 3 3 3 0 0 0 0 0 0 0 0 0 0 0 0 0 0 0 0 0 0 0 0 0 0 0 0 0 0 0 0 0 0 0 0 0 0
0 0 0 0 0 0 0 0 0 0 0 3 3 3 3 0 0 0 0 0 0 0 0 0 0 0 0 0 0 3 0 0 3 0 0 0 0 0 0 0 0 0 0 0 0 0 0 0 0
0 0 0 0 0 0 0 0 0 0 0 0 3 3 3 3 0 3 0 0 0 0 0 0 0 0 0 0 0 3 3 3 3 0 0 0 0 0 0 0 0 0 0 0 0 0 0 0 0
0 0 0 0 0 0 0 0 0 0 0 0 0 3 3 3 0 3 3 3 3 0 0 0 0 0 0 0 0 3 3 3 3 0 0 0 0 0 0 0 0 0 0 0 0 0 0 0 0
0 0 0 0 0 0 0 0 0 0 0 0 0 0 3 3 3 3 3 3 3 0 0 3 3 0 0 0 0 0 0 3 3 3 0 0 0 0 0 0 0 0 0 0 0 0 0 0 0
0 0 0 0 0 0 0 0 0 0 0 0 0 0 0 3 3 3 3 3 3 3 3 3 3 0 0 0 3 0 0 3 3 3 0 0 0 0 0 0 0 0 0 0 0 0 0 0 0
0 0 0 0 0 0 0 0 0 0 0 0 0 0 0 0 0 0 3 3 3 3 3 3 3 0 0 0 3 3 0 3 3 3 3 0 0 0 0 0 0 0 0 0 0 0 0 0 0
0 0 0 0 0 0 0 0 0 0 0 0 0 0 0 0 0 0 0 3 3 3 3 3 3 3 0 3 0 3 3 0 3 3 3 0 0 0 0 0 0 0 0 0 0 0 0 0 0
0 0 0 0 0 0 0 0 0 0 0 0 0 0 0 0 0 0 0 0 0 0 0 0 3 3 0 0 0 3 3 0 0 3 3 3 0 3 0 0 0 0 0 0 0 0 0 0 0
0 0 0 0 0 0 0 0 0 0 0 0 0 0 0 0 0 0 0 0 0 0 0 0 0 0 0 0 0 0 0 0 0 0 0 3 3 0 0 0 0 0 0 0 0 0 0 0 0
0 0 0 0 0 0 0 0 0 0 0 0 0 0 0 0 0 0 0 0 0 0 0 0 0 0 0 0 0 0 0 0 0 0 0 0 3 0 0 0 0 0 0 0 0 0 0 0 0